EHI
0 0 0 0 0 0 0 0 0 0 0 0 0 0 0 0 0 0 0 0 0 0 0 0 0 0 0 0 0 0 0 0 0 0 0 0 0 0 0 0 0 0 0
0 0 0 0 0 0 0 0 0 0 0 0 0 0 0 0 0 0 0 0 0 0 0 0 0 0 0 0 0 0 0 0 0 0 0 0 0 0 0 0 0 0 0
0 0 0 0 0 0 0 0 0 0 0 0 0 0 0 0 0 0 0 0 0 0 0 0 0 0 0 0 0 0 0 0 0 0 0 0 0 0 0 0 0 0 0
0 0 0 0 0 0 0 0 0 0 0 0 0 0 0 0 0 0 0 0 0 0 0 0 0 0 0 0 0 0 0 0 0 0 0 0 0 0 0 0 0 0 0
0 0 0 0 0 0 0 0 0 0 0 0 0 0 0 0 0 0 0 0 0 0 0 0 0 0 0 0 0 0 0 0 0 0 0 0 0 0 0 0 0 0 0
0 0 0 0 0 0 0 0 0 0 0 0 0 0 0 0 0 0 0 0 0 0 0 0 0 0 0 0 0 0 0 0 0 0 0 0 0 0 0 0 0 0 0
0 0 0 0 0 0 0 0 0 0 0 0 0 0 0 0 0 0 0 0 0 0 0 0 0 0 0 0 0 0 0 0 0 0 0 0 0 0 0 0 0 0 0
0 0 0 0 0 0 0 0 0 0 0 0 0 0 0 0 0 0 0 0 0 0 0 0 0 0 0 0 0 0 0 0 0 0 0 0 0 0 0 0 0 0 0
0 0 0 0 0 0 0 0 0 0 0 0 0 0 0 0 0 0 0 0 0 0 0 0 0 0 0 0 0 0 0 0 0 0 0 0 0 0 0 0 0 0 0
0 0 0 0 0 0 0 0 0 0 0 0 0 0 0 0 0 0 0 0 0 0 0 0 0 0 0 0 0 0 0 0 0 0 0 0 0 0 0 0 0 0 0
0 0 0 0 0 0 0 0 0 0 0 0 0 0 0 0 0 0 0 0 0 0 0 0 0 0 0 0 0 0 0 0 0 0 0 0 0 0 0 0 0 0 0
0 0 0 0 0 0 0 0 0 0 0 0 0 0 0 0 0 0 0 0 0 0 0 0 0 0 0 0 0 0 0 0 0 0 0 0 0 0 0 0 0 0 0
0 0 0 0 0 0 0 0 0 0 0 0 0 0 0 0 0 0 0 0 0 0 0 0 0 0 0 0 0 0 0 0 0 0 0 0 0 0 0 0 0 0 0
0 0 0 0 0 0 0 0 0 0 0 0 0 0 0 0 0 0 0 0 0 0 0 0 0 0 0 0 0 0 0 0 0 0 0 0 0 0 0 0 0 0 0
0 0 0 0 0 0 0 0 0 0 0 0 0 0 0 0 0 0 0 0 0 0 0 0 0 0 0 0 0 0 0 0 0 0 0 0 0 0 0 0 0 0 0
0 0 0 0 0 0 0 0 0 0 0 0 0 0 0 0 0 0 0 0 0 0 0 0 0 0 0 0 0 0 0 0 0 0 0 0 0 0 0 0 0 0 0
0 0 0 0 0 0 0 0 0 0 0 0 0 0 0 0 0 0 0 0 0 0 0 0 0 0 0 0 0 0 0 0 0 0 0 0 0 0 0 0 0 0 0
0 0 0 0 0 0 0 0 0 0 0 0 0 0 0 0 0 0 0 0 0 0 0 0 0 0 0 0 0 0 0 0 0 0 0 0 0 0 0 0 0 0 0
0 0 0 0 0 0 0 0 0 0 0 0 0 0 0 0 0 0 0 0 0 0 0 0 0 0 0 0 0 0 0 0 0 0 0 0 0 0 0 0 0 0 0
0 0 0 0 0 0 0 0 0 0 0 0 0 0 0 0 0 0 0 0 0 0 0 0 0 0 0 0 0 0 0 0 0 0 0 0 0 0 0 0 0 0 0
0 0 0 0 0 0 0 0 0 0 0 0 0 0 0 0 0 0 0 0 0 0 0 0 0 0 0 0 0 0 0 0 0 0 0 0 0 0 0 0 0 0 0
0 0 0 0 0 0 0 0 0 0 0 0 0 0 0 0 0 0 0 0 0 0 0 0 0 0 0 0 0 0 0 0 0 0 0 0 0 0 0 0 0 0 0
0 0 0 0 0 0 0 0 0 0 0 0 0 0 0 0 0 0 0 0 0 0 0 0 0 0 0 0 0 0 0 0 0 0 0 0 0 0 0 0 0 0 0
0 0 0 0 0 0 0 0 0 0 0 0 0 0 0 0 0 0 0 0 0 0 0 0 0 0 0 0 0 0 0 0 0 0 0 0 0 0 0 0 0 0 0
0 0 0 0 0 0 0 0 0 0 0 0 0 0 0 0 0 0 0 0 0 0 0 0 0 0 0 0 0 0 0 0 0 0 0 0 0 0 0 0 0 0 0
0 0 0 0 0 0 0 0 0 0 0 0 0 0 0 0 0 0 0 0 0 0 0 0 0 0 0 0 0 0 0 0 0 0 0 0 0 0 0 0 0 0 0
Wind_Speed
4 3 4 4 4 4 4 4 4 4 3 3 2 2 2 1 1 1 1 1 1 0 0 0 1 1 1 1 2 2 1 0 1 1 0 0 0 0 1 1 1 1 2
4 3 3 4 4 5 5 5 4 4 4 3 2 1 2 1 1 1 1 0 0 0 0 1 1 1 1 1 2 2 1 0 1 1 1 2 2 1 1 1 0 0 0
5 4 4 3 3 3 4 4 4 4 4 4 2 2 2 1 1 1 1 1 1 1 1 1 1 1 2 2 2 3 3 2 2 2 2 2 2 1 2 2 1 1 1
4 4 4 4 3 2 3 3 4 4 4 4 4 4 3 3 3 2 2 2 2 1 1 1 1 1 2 2 2 3 3 3 3 2 2 2 1 2 2 2 2 2 2
4 4 4 3 2 2 2 3 3 4 4 4 4 4 4 3 2 2 3 2 2 2 1 2 2 2 2 3 3 3 3 3 3 3 2 2 2 3 2 3 3 2 2
2 3 2 2 1 1 1 1 2 3 3 4 4 4 4 3 3 3 3 2 1 2 2 2 2 2 2 3 3 3 4 4 4 3 3 3 2 3 2 3 3 3 3
2 2 2 2 2 1 1 1 2 2 3 4 4 4 4 4 4 4 3 3 2 2 2 2 3 2 3 3 3 4 4 4 4 4 3 4 4 3 3 3 2 3 2
1 1 2 2 2 2 2 1 2 2 2 3 3 4 4 3 3 3 3 3 3 3 3 3 3 3 3 3 3 3 4 4 4 5 5 4 3 3 3 3 3 3 3
1 1 1 1 2 2 2 2 2 2 2 2 2 3 4 4 3 3 3 3 3 2 3 4 4 4 4 4 4 3 4 4 4 4 5 4 3 3 4 3 4 4 4
1 1 1 1 1 1 1 2 2 2 2 2 2 2 3 3 3 3 3 3 3 3 4 4 4 4 4 4 4 4 4 5 5 4 5 5 4 4 4 4 4 4 5
2 2 2 1 1 1 1 1 2 2 2 2 2 3 3 3 3 3 4 3 3 3 4 4 4 5 5 5 5 5 5 5 5 5 6 6 5 4 4 4 4 5 5
2 2 1 2 2 2 1 2 2 2 2 2 2 3 3 3 3 3 3 3 4 4 4 4 4 4 5 5 5 6 6 6 6 6 6 7 5 6 5 5 5 5 5
2 2 2 2 2 2 2 2 2 2 2 2 2 2 3 3 3 3 3 3 4 4 4 4 4 4 5 5 5 6 6 6 6 6 7 7 7 7 6 6 6 5 5
3 3 3 3 3 3 3 3 3 2 2 2 2 3 3 3 3 3 3 3 4 4 4 4 4 4 5 5 5 5 6 6 6 6 6 6 7 8 7 6 7 6 6
4 4 4 4 3 3 3 3 3 2 2 3 3 3 3 3 3 3 3 3 3 4 4 4 4 4 4 4 5 5 6 6 6 6 7 7 8 9 8 6 6 6 6
5 4 4 4 4 3 3 3 3 3 3 3 3 3 3 3 3 3 3 3 3 4 4 4 5 5 4 6 7 7 6 6 7 7 7 7 8 10 11 11 10 9 8
5 5 5 4 4 4 4 4 3 3 3 3 3 3 3 3 3 3 3 4 4 4 4 4 5 5 6 7 8 9 7 7 7 7 7 6 6 9 8 9 11 11 12
5 5 5 5 4 3 3 3 3 3 3 3 3 3 3 3 3 3 4 4 4 4 4 5 5 5 6 7 9 9 8 7 7 7 8 8 8 7 8 7 8 9 10
5 5 4 4 3 2 2 2 2 2 3 3 3 3 3 3 3 4 4 4 4 4 4 5 5 6 6 8 9 9 6 6 7 7 8 9 8 10 11 8 8 8 8
3 3 2 2 2 2 2 2 2 2 3 4 3 3 3 4 4 4 4 4 4 4 4 5 5 6 6 8 9 9 5 6 6 6 7 10 10 11 11 8 7 8 7
2 2 1 1 1 1 1 2 2 3 4 4 3 3 3 4 4 4 4 4 4 4 4 5 5 6 6 7 9 8 5 6 6 6 5 6 10 12 12 10 7 8 7
2 1 1 1 1 1 2 2 3 3 3 3 3 3 3 3 3 4 4 4 4 4 5 5 5 5 5 6 7 9 9 8 6 6 5 6 10 11 10 8 7 8 7
2 1 1 2 2 2 2 3 3 3 3 3 3 3 3 3 3 3 4 4 4 4 4 4 4 4 4 5 8 9 9 10 7 5 8 9 10 9 7 7 8 7 5
2 1 1 2 2 2 2 3 3 3 3 3 3 3 3 3 3 3 3 3 4 4 4 4 4 5 4 4 4 4 5 7 6 5 7 9 9 7 6 5 5 4 4
2 1 2 2 3 3 3 3 3 2 3 3 3 3 3 3 3 3 3 4 4 5 5 5 5 5 5 6 8 6 4 4 4 4 3 3 3 3 3 3 3 3 4
2 2 2 3 3 3 4 3 3 3 3 3 3 3 3 3 3 3 3 5 6 7 9 9 8 7 8 10 9 8 8 8 7 4 3 3 3 3 3 3 3 3 3
Wind_Direction
238 217 206 196 193 192 196 188 177 176 168 161 166 165 166 140 120 107 79 63 42 73 115 137 174 197 188 188 177 157 151 152 163 161 154 127 44 122 102 109 95 78 66
235 222 219 209 203 198 197 194 188 183 175 172 179 183 173 161 141 130 127 137 125 132 206 203 197 217 198 180 182 174 178 211 237 225 206 213 205 193 190 171 148 140 85
240 230 219 216 208 206 206 201 198 193 184 174 166 149 151 153 172 174 179 193 196 188 202 227 212 217 206 198 201 201 199 207 221 254 244 224 217 195 196 203 197 200 213
241 234 226 221 217 219 209 207 201 201 191 179 177 172 182 195 202 208 203 192 194 207 206 225 227 221 219 215 214 221 227 212 212 224 261 290 292 224 200 196 199 212 227
238 232 227 221 218 223 207 198 195 201 195 187 189 191 198 207 203 201 206 199 196 207 216 224 225 228 227 222 218 222 231 227 225 220 220 234 262 252 229 216 207 214 219
245 237 230 211 196 184 181 181 188 197 198 191 193 197 201 201 197 200 205 206 207 213 220 232 233 235 238 228 227 228 231 230 234 234 223 219 223 222 228 235 224 226 219
253 235 226 215 208 198 191 192 188 199 206 197 198 203 210 211 209 211 215 215 217 223 225 231 239 239 245 244 235 231 235 232 231 235 237 236 237 238 234 234 237 242 240
259 243 235 230 222 217 213 216 226 223 216 212 211 210 210 218 221 222 227 225 231 235 233 235 243 244 241 242 241 237 236 238 235 238 240 243 240 235 227 221 216 232 235
268 273 269 249 242 233 228 229 232 234 227 228 228 224 218 218 224 228 234 236 239 242 234 235 241 240 236 238 238 239 239 239 237 237 238 241 245 242 231 224 222 227 232
301 296 283 276 276 272 259 244 244 245 247 240 236 238 235 234 230 228 230 240 245 240 237 236 236 237 235 233 234 239 240 239 239 238 238 238 241 247 239 228 228 234 240
278 292 300 303 306 303 273 254 252 251 249 248 243 241 243 243 244 241 240 243 246 242 239 241 241 239 237 234 232 235 237 239 242 238 237 238 238 240 242 233 227 228 232
264 275 302 314 318 316 303 277 262 256 256 255 249 247 249 246 244 251 250 245 247 245 246 246 246 247 245 241 237 237 237 239 240 240 240 240 238 238 240 233 233 231 230
260 275 299 302 304 301 297 292 279 267 263 254 245 249 250 251 254 256 258 250 245 247 245 244 246 247 249 248 244 241 240 244 245 243 242 241 238 238 239 232 233 234 234
259 268 275 282 290 296 295 292 287 275 259 248 243 250 255 257 261 264 261 256 248 247 249 248 247 249 249 247 246 246 244 244 246 245 246 245 243 240 241 233 231 229 230
259 263 266 271 278 287 293 293 290 284 260 245 244 250 259 260 260 261 260 260 256 250 251 253 253 251 249 242 244 249 248 246 247 245 246 246 247 246 245 238 232 227 229
262 268 271 273 273 281 292 297 296 286 262 246 250 256 257 256 256 257 259 256 258 256 251 250 252 251 249 251 251 252 252 250 247 246 247 248 248 248 249 243 239 235 231
266 267 267 268 275 280 287 288 290 291 268 253 254 253 251 251 254 258 257 254 254 256 250 249 252 255 257 255 254 253 253 250 249 249 249 248 244 248 250 246 244 242 240
270 272 274 275 276 281 289 293 287 276 263 257 257 256 252 253 254 253 255 259 258 257 257 252 253 259 264 261 260 260 256 253 250 250 249 250 249 247 246 242 242 244 242
279 277 273 269 266 268 282 285 282 276 263 260 263 265 258 254 254 250 254 259 260 260 263 262 256 257 264 263 263 265 259 253 254 253 251 250 250 255 250 243 244 248 248
301 294 285 272 261 272 273 265 279 281 275 273 273 274 267 258 256 258 262 262 260 262 267 269 263 260 262 264 266 262 254 255 257 256 252 250 252 258 251 241 242 246 249
306 299 276 265 275 284 266 264 274 278 287 289 283 277 273 267 263 263 262 261 263 267 266 271 269 262 259 264 265 261 257 255 259 260 258 255 256 260 255 248 246 249 256
305 297 280 287 297 278 254 265 276 290 297 292 287 283 280 277 269 264 265 262 259 261 264 268 273 266 262 263 264 264 263 267 262 261 262 264 265 263 257 252 255 257 257
281 279 270 284 295 281 261 265 285 300 297 291 290 290 289 280 272 263 260 259 256 257 263 266 273 276 272 271 270 271 269 269 267 266 269 272 270 260 253 251 255 254 246
269 262 258 270 287 292 283 280 295 294 287 287 291 290 284 282 276 269 261 258 257 258 262 265 271 275 272 271 271 272 273 271 268 272 274 271 264 254 257 256 248 245 246
271 256 254 266 282 291 291 299 300 292 282 284 286 286 282 281 280 275 273 270 265 265 267 268 270 273 271 272 277 277 274 275 275 277 270 265 258 247 247 249 251 249 245
266 261 264 272 282 287 289 298 298 287 278 279 282 281 284 284 279 280 283 277 274 282 280 280 281 282 280 285 282 279 280 279 276 263 256 258 257 254 252 253 252 248 248